Time,TemperatureF,DewpointF,PressureIn,WindDirection,WindDirectionDegrees,WindSpeedMPH,WindSpeedGustMPH,Humidity,HourlyPrecipIn,Conditions,Clouds,dailyrainin,SoftwareType,DateUTC
2013-06-27 00:05:00,74.8,69.0,29.71,NE,43,0.0,0.0,81,0.00,,,0.00,weatherlink.com 1.10,2013-06-27 04:05:00,
2013-06-27 00:20:00,74.3,68.0,29.72,NE,43,0.0,1.0,81,0.00,,,0.00,weatherlink.com 1.10,2013-06-27 04:20:00,
2013-06-27 00:35:00,74.1,68.0,29.72,East,98,0.0,0.0,81,0.00,,,0.00,weatherlink.com 1.10,2013-06-27 04:35:00,
2013-06-27 00:50:00,73.8,68.0,29.73,NW,311,0.0,0.0,81,0.00,,,0.00,weatherlink.com 1.10,2013-06-27 04:50:00,
2013-06-27 01:05:00,73.4,67.0,29.71,NW,314,0.0,0.0,81,0.00,,,0.00,weatherlink.com 1.10,2013-06-27 05:05:00,
2013-06-27 01:20:00,73.0,67.0,29.72,NW,314,0.0,0.0,81,0.00,,,0.00,weatherlink.com 1.10,2013-06-27 05:20:00,
2013-06-27 01:35:00,72.9,66.0,29.71,West,273,0.0,0.0,80,0.00,,,0.00,weatherlink.com 1.10,2013-06-27 05:35:00,
2013-06-27 01:50:00,72.5,66.0,29.71,West,273,0.0,0.0,80,0.00,,,0.00,weatherlink.com 1.10,2013-06-27 05:50:00,
2013-06-27 02:05:00,72.1,65.0,29.70,West,273,0.0,0.0,79,0.00,,,0.00,weatherlink.com 1.10,2013-06-27 06:05:00,
2013-06-27 02:20:00,71.6,64.0,29.71,West,273,0.0,0.0,78,0.00,,,0.00,weatherlink.com 1.10,2013-06-27 06:20:00,
2013-06-27 02:35:00,71.3,64.0,29.70,West,273,0.0,0.0,78,0.00,,,0.00,weatherlink.com 1.10,2013-06-27 06:35:00,
2013-06-27 02:50:00,70.9,63.0,29.70,West,272,0.0,0.0,77,0.00,,,0.00,weatherlink.com 1.10,2013-06-27 06:50:00,
2013-06-27 03:05:00,70.6,63.0,29.71,West,273,0.0,0.0,76,0.00,,,0.00,weatherlink.com 1.10,2013-06-27 07:05:00,
2013-06-27 03:20:00,70.2,63.0,29.71,West,273,0.0,0.0,77,0.00,,,0.00,weatherlink.com 1.10,2013-06-27 07:20:00,
2013-06-27 03:35:00,70.1,62.0,29.70,East,79,0.0,1.0,76,0.00,,,0.00,weatherlink.com 1.10,2013-06-27 07:35:00,
2013-06-27 03:50:00,69.9,62.0,29.71,East,89,0.0,1.0,76,0.00,,,0.00,weatherlink.com 1.10,2013-06-27 07:50:00,
2013-06-27 04:05:00,69.7,62.0,29.71,East,86,0.0,0.0,76,0.00,,,0.00,weatherlink.com 1.10,2013-06-27 08:05:00,
2013-06-27 04:20:00,69.5,62.0,29.71,East,86,0.0,0.0,76,0.00,,,0.00,weatherlink.com 1.10,2013-06-27 08:20:00,
2013-06-27 04:35:00,69.4,62.0,29.71,East,86,0.0,0.0,76,0.00,,,0.00,weatherlink.com 1.10,2013-06-27 08:35:00,
2013-06-27 04:50:00,69.4,61.0,29.71,East,86,0.0,0.0,75,0.00,,,0.00,weatherlink.com 1.10,2013-06-27 08:50:00,
2013-06-27 05:05:00,69.1,61.0,29.71,East,86,0.0,0.0,76,0.00,,,0.00,weatherlink.com 1.10,2013-06-27 09:05:00,
2013-06-27 05:20:00,68.6,61.0,29.71,East,86,0.0,0.0,76,0.00,,,0.00,weatherlink.com 1.10,2013-06-27 09:20:00,
2013-06-27 05:36:00,68.4,60.0,29.71,East,86,0.0,0.0,75,0.00,,,0.00,weatherlink.com 1.10,2013-06-27 09:36:00,
2013-06-27 05:51:00,68.4,60.0,29.71,East,86,0.0,0.0,75,0.00,,,0.00,weatherlink.com 1.10,2013-06-27 09:51:00,
2013-06-27 06:06:00,68.2,60.0,29.72,East,86,0.0,0.0,75,0.00,,,0.00,weatherlink.com 1.10,2013-06-27 10:06:00,
2013-06-27 06:21:00,68.0,60.0,29.73,East,86,0.0,0.0,75,0.00,,,0.00,weatherlink.com 1.10,2013-06-27 10:21:00,
2013-06-27 06:36:00,68.1,60.0,29.73,East,86,0.0,0.0,75,0.00,,,0.00,weatherlink.com 1.10,2013-06-27 10:36:00,
2013-06-27 06:51:00,68.5,61.0,29.73,East,86,0.0,0.0,76,0.00,,,0.00,weatherlink.com 1.10,2013-06-27 10:51:00,
2013-06-27 07:06:00,68.9,61.0,29.72,East,86,0.0,0.0,76,0.00,,,0.00,weatherlink.com 1.10,2013-06-27 11:06:00,
2013-06-27 07:21:00,69.4,61.0,29.72,East,86,0.0,0.0,75,0.00,,,0.00,weatherlink.com 1.10,2013-06-27 11:21:00,
2013-06-27 07:36:00,69.9,62.0,29.71,East,86,0.0,0.0,75,0.00,,,0.00,weatherlink.com 1.10,2013-06-27 11:36:00,
2013-06-27 07:51:00,70.2,62.0,29.71,ESE,118,0.0,0.0,76,0.00,,,0.00,weatherlink.com 1.10,2013-06-27 11:51:00,
2013-06-27 08:06:00,70.7,63.0,29.71,SSE,160,0.0,1.0,76,0.00,,,0.00,weatherlink.com 1.10,2013-06-27 12:06:00,
2013-06-27 08:21:00,71.2,64.0,29.71,WNW,293,2.0,4.0,79,0.00,,,0.00,weatherlink.com 1.10,2013-06-27 12:21:00,
2013-06-27 08:36:00,71.7,65.0,29.71,WNW,296,1.0,4.0,80,0.00,,,0.00,weatherlink.com 1.10,2013-06-27 12:36:00,
2013-06-27 08:51:00,72.6,67.0,29.72,WNW,287,0.0,3.0,81,0.00,,,0.00,weatherlink.com 1.10,2013-06-27 12:51:00,
2013-06-27 09:06:00,74.7,69.0,29.72,WNW,293,2.0,2.0,82,0.00,,,0.00,weatherlink.com 1.10,2013-06-27 13:06:00,
2013-06-27 09:21:00,75.1,69.0,29.72,West,280,3.0,4.0,82,0.00,,,0.00,weatherlink.com 1.10,2013-06-27 13:21:00,
2013-06-27 09:36:00,75.7,70.0,29.72,SW,224,1.0,5.0,82,0.00,,,0.00,weatherlink.com 1.10,2013-06-27 13:36:00,
2013-06-27 09:51:00,77.0,71.0,29.72,SSW,194,0.0,3.0,81,0.00,,,0.00,weatherlink.com 1.10,2013-06-27 13:51:00,
2013-06-27 10:06:00,77.7,71.0,29.72,South,184,0.0,3.0,80,0.00,,,0.00,weatherlink.com 1.10,2013-06-27 14:06:00,
2013-06-27 10:21:00,78.3,72.0,29.72,WNW,291,2.0,4.0,80,0.00,,,0.00,weatherlink.com 1.10,2013-06-27 14:21:00,
2013-06-27 10:36:00,78.0,71.0,29.72,SSE,166,3.0,6.0,80,0.00,,,0.00,weatherlink.com 1.10,2013-06-27 14:36:00,
2013-06-27 10:51:00,78.8,72.0,29.72,WSW,248,5.0,5.0,79,0.00,,,0.00,weatherlink.com 1.10,2013-06-27 14:51:00,
2013-06-27 11:06:00,79.7,72.0,29.72,NW,323,1.0,7.0,77,0.00,,,0.00,weatherlink.com 1.10,2013-06-27 15:06:00,
2013-06-27 11:21:00,80.2,72.0,29.72,West,277,3.0,8.0,75,0.00,,,0.00,weatherlink.com 1.10,2013-06-27 15:21:00,
2013-06-27 11:36:00,80.7,72.0,29.72,WNW,283,0.0,8.0,74,0.00,,,0.00,weatherlink.com 1.10,2013-06-27 15:36:00,
2013-06-27 11:51:00,82.4,71.0,29.71,WSW,249,1.0,4.0,69,0.00,,,0.00,weatherlink.com 1.10,2013-06-27 15:51:00,
2013-06-27 12:06:00,81.8,72.0,29.71,North,8,0.0,7.0,71,0.00,,,0.00,weatherlink.com 1.10,2013-06-27 16:06:00,
2013-06-27 12:21:00,82.7,71.0,29.71,East,96,0.0,6.0,68,0.00,,,0.00,weatherlink.com 1.10,2013-06-27 16:21:00,
2013-06-27 12:36:00,83.1,71.0,29.70,WNW,288,7.0,7.0,68,0.00,,,0.00,weatherlink.com 1.10,2013-06-27 16:36:00,
2013-06-27 12:51:00,83.4,70.0,29.70,NW,313,1.0,7.0,64,0.00,,,0.00,weatherlink.com 1.10,2013-06-27 16:51:00,
2013-06-27 13:06:00,83.0,70.0,29.70,West,264,3.0,8.0,65,0.00,,,0.00,weatherlink.com 1.10,2013-06-27 17:06:00,
2013-06-27 13:21:00,83.3,69.0,29.70,WNW,287,2.0,9.0,63,0.00,,,0.00,weatherlink.com 1.10,2013-06-27 17:21:00,
2013-06-27 13:36:00,83.4,69.0,29.69,West,268,3.0,11.0,63,0.00,,,0.00,weatherlink.com 1.10,2013-06-27 17:36:00,
2013-06-27 13:52:00,83.0,70.0,29.69,WNW,291,4.0,7.0,65,0.00,,,0.00,weatherlink.com 1.10,2013-06-27 17:52:00,
2013-06-27 14:07:00,83.4,67.0,29.69,NW,305,2.0,10.0,59,0.00,,,0.00,weatherlink.com 1.10,2013-06-27 18:07:00,
2013-06-27 14:22:00,82.7,69.0,29.69,West,273,5.0,12.0,64,0.00,,,0.00,weatherlink.com 1.10,2013-06-27 18:22:00,
2013-06-27 14:37:00,82.5,68.0,29.69,WNW,287,5.0,12.0,62,0.00,,,0.00,weatherlink.com 1.10,2013-06-27 18:37:00,
2013-06-27 14:52:00,82.3,68.0,29.69,WSW,243,8.0,13.0,62,0.00,,,0.00,weatherlink.com 1.10,2013-06-27 18:52:00,
2013-06-27 15:07:00,81.8,68.0,29.70,West,263,8.0,13.0,63,0.00,,,0.00,weatherlink.com 1.10,2013-06-27 19:07:00,
2013-06-27 15:22:00,81.9,69.0,29.70,WSW,245,4.0,13.0,64,0.00,,,0.00,weatherlink.com 1.10,2013-06-27 19:22:00,
2013-06-27 15:37:00,81.3,70.0,29.70,WNW,282,3.0,13.0,68,0.00,,,0.00,weatherlink.com 1.10,2013-06-27 19:37:00,
2013-06-27 15:52:00,81.0,69.0,29.69,West,273,6.0,15.0,68,0.00,,,0.00,weatherlink.com 1.10,2013-06-27 19:52:00,
2013-06-27 16:07:00,80.8,70.0,29.68,WNW,295,4.0,10.0,70,0.00,,,0.00,weatherlink.com 1.10,2013-06-27 20:07:00,
2013-06-27 16:22:00,80.5,70.0,29.68,WSW,250,6.0,11.0,70,0.00,,,0.00,weatherlink.com 1.10,2013-06-27 20:22:00,
2013-06-27 16:37:00,81.2,71.0,29.67,NW,313,5.0,9.0,71,0.00,,,0.00,weatherlink.com 1.10,2013-06-27 20:37:00,
2013-06-27 17:07:00,81.0,72.0,29.66,WNW,301,6.0,10.0,73,0.00,,,0.00,weatherlink.com 1.10,2013-06-27 21:07:00,
2013-06-27 17:22:00,81.3,72.0,29.67,WNW,285,4.0,9.0,73,0.00,,,0.00,weatherlink.com 1.10,2013-06-27 21:22:00,
2013-06-27 17:37:00,80.7,71.0,29.67,WNW,288,5.0,10.0,73,0.00,,,0.00,weatherlink.com 1.10,2013-06-27 21:37:00,
2013-06-27 17:52:00,80.4,71.0,29.67,SSW,212,3.0,9.0,74,0.00,,,0.00,weatherlink.com 1.10,2013-06-27 21:52:00,
2013-06-27 18:07:00,80.5,71.0,29.67,WNW,298,3.0,11.0,73,0.00,,,0.00,weatherlink.com 1.10,2013-06-27 22:07:00,
2013-06-27 18:22:00,79.5,71.0,29.66,WNW,285,2.0,8.0,75,0.00,,,0.00,weatherlink.com 1.10,2013-06-27 22:22:00,
2013-06-27 18:37:00,79.3,71.0,29.66,WNW,302,1.0,4.0,75,0.00,,,0.00,weatherlink.com 1.10,2013-06-27 22:37:00,
2013-06-27 19:07:00,80.0,70.0,29.65,NW,310,2.0,6.0,72,0.00,,,0.00,weatherlink.com 1.10,2013-06-27 23:07:00,
2013-06-27 19:22:00,79.2,70.0,29.65,WNW,284,0.0,3.0,73,0.00,,,0.00,weatherlink.com 1.10,2013-06-27 23:22:00,
2013-06-27 19:52:00,77.6,70.0,29.65,WNW,298,2.0,5.0,78,0.00,,,0.00,weatherlink.com 1.10,2013-06-27 23:52:00,
2013-06-27 20:07:00,77.4,70.0,29.66,WNW,291,6.0,6.0,78,0.00,,,0.00,weatherlink.com 1.10,2013-06-28 00:07:00,
2013-06-27 20:37:00,76.8,70.0,29.66,West,279,0.0,3.0,79,0.00,,,0.00,weatherlink.com 1.10,2013-06-28 00:37:00,
2013-06-27 20:52:00,76.2,69.0,29.66,WNW,293,3.0,4.0,79,0.00,,,0.00,weatherlink.com 1.10,2013-06-28 00:52:00,
2013-06-27 21:07:00,75.7,69.0,29.66,WNW,287,2.0,5.0,80,0.00,,,0.00,weatherlink.com 1.10,2013-06-28 01:07:00,
2013-06-27 21:22:00,75.0,69.0,29.67,WNW,289,3.0,5.0,81,0.00,,,0.00,weatherlink.com 1.10,2013-06-28 01:22:00,
2013-06-27 21:52:00,73.2,67.0,29.66,WNW,300,0.0,6.0,81,0.00,,,0.00,weatherlink.com 1.10,2013-06-28 01:52:00,
2013-06-27 22:22:00,72.1,66.0,29.67,WNW,294,0.0,2.0,80,0.00,,,0.00,weatherlink.com 1.10,2013-06-28 02:22:00,
2013-06-27 22:37:00,71.8,65.0,29.68,NW,308,2.0,4.0,80,0.00,,,0.00,weatherlink.com 1.10,2013-06-28 02:37:00,
2013-06-27 22:52:00,71.4,65.0,29.67,WNW,303,1.0,6.0,80,0.00,,,0.00,weatherlink.com 1.10,2013-06-28 02:52:00,
2013-06-27 23:07:00,71.0,64.0,29.64,NNW,343,0.0,5.0,79,0.00,,,0.00,weatherlink.com 1.10,2013-06-28 03:07:00,
2013-06-27 23:22:00,70.9,64.0,29.64,WNW,301,0.0,0.0,79,0.00,,,0.00,weatherlink.com 1.10,2013-06-28 03:22:00,
2013-06-27 23:37:00,70.6,64.0,29.64,WNW,300,2.0,2.0,79,0.00,,,0.00,weatherlink.com 1.10,2013-06-28 03:37:00,
2013-06-27 23:52:00,70.2,63.0,29.64,SSW,198,1.0,1.0,78,0.00,,,0.00,weatherlink.com 1.10,2013-06-28 03:52:00,